EW9198 Weather Reports


time (UTC)temp
C
wind
direction
speed
KPH
gust
KPH
rain 1hr
cm
rain 24hr
cm
rain mn
cm
humidity
%
barometer
mb
20240418174526 -17 5 19.3 35.4 0.00 0.00 0.00 1012.4
20240418173025 -17 5 19.3 30.6 0.00 0.00 0.00 1012.6
20240418171526 -17 5 14.5 27.4 0.00 0.00 0.00 1012.7
20240418170023 -17 5 17.7 29.0 0.00 0.00 0.00 1012.8
20240418164524 -17 5 14.5 33.8 0.00 0.00 0.00 1012.9
20240418163021 -17 5 11.3 22.5 0.00 0.00 0.00 1013.1
20240418161521 -17 5 22.5 32.2 0.00 0.00 0.00 1013.1
20240418160018 -17 5 19.3 30.6 0.00 0.00 0.00 1013.1
20240418154535 -17 5 20.9 29.0 0.00 0.00 0.00 1013.0
20240418153017 -17 5 14.5 24.1 0.00 0.00 0.00 1012.9
20240418151511 -17 5 14.5 24.1 0.00 0.00 0.00 1012.9
20240418150003 -17 5 17.7 27.4 0.00 0.00 0.00 1012.8
20240418144611 -17 5 14.5 25.7 0.00 0.00 0.00 1012.9
20240418143056 -17 5 11.3 22.5 0.00 0.00 0.00 1012.7
20240418141600 -17 5 9.7 20.9 0.00 0.00 0.00 1012.6
20240418140050 -17 5 9.7 17.7 0.00 0.00 0.00 1012.6
20240418134545 -17 5 8.0 25.7 0.00 0.00 0.00 1012.4
20240418133046 -17 5 12.9 24.1 0.00 0.00 0.00 1012.2
20240418131536 -17 5 14.5 29.0 0.00 0.00 0.00 1012.0
20240418130035 -17 5 14.5 25.7 0.00 0.00 0.00 1012.0
20240418124530 -17 5 12.9 25.7 0.00 0.00 0.00 1011.9
20240418123026 -17 5 12.9 22.5 0.00 0.00 0.00 1011.8
20240418121518 -17 5 11.3 19.3 0.00 0.00 0.00 1011.8
20240418120033 -17 5 11.3 17.7 0.00 0.00 0.00 1011.7
20240418114512 -17 5 9.7 20.9 0.00 0.00 0.00 1011.7
20240418113043 -17 5 9.7 12.9 0.00 0.00 0.00 1011.8
20240418111540 -17 5 4.8 8.0 0.00 0.00 0.00 1011.7
20240418110025 -17 5 0.0 3.2 0.00 0.00 0.00 1011.7
20240418104523 -17 5 0.0 6.4 0.00 0.00 0.00 1011.7
20240418103037 -17 5 3.2 6.4 0.00 0.00 0.00 1011.5
20240418101512 -17 5 1.6 3.2 0.00 0.00 0.00 1011.5
20240418100005 -17 5 0.0 3.2 0.00 0.00 0.00 1011.5
20240418094600 -17 5 1.6 4.8 0.00 0.00 0.00 1011.5
20240418093105 -17 5 1.6 6.4 0.00 0.00 0.00 1011.6
20240418091551 -17 5 6.4 12.9 0.00 0.00 0.00 1011.5
20240418090019 -17 5 1.6 4.8 0.00 0.00 0.00 1011.4
20240418084514 -17 5 4.8 14.5 0.00 0.00 0.00 1011.3
20240418083007 -17 5 11.3 24.1 0.00 0.00 0.00 1010.6
20240418081502 -17 5 11.3 32.2 0.00 0.00 0.00 1010.3
20240418080058 -17 5 20.9 40.2 0.00 0.00 0.00 1009.7
20240418074554 -17 5 17.7 29.0 0.00 0.00 0.00 1010.0
20240418073047 -17 5 20.9 32.2 0.00 0.00 0.00 1009.8
20240418071543 -17 5 20.9 37.0 0.00 0.00 0.00 1010.3
20240418070038 -17 5 20.9 27.4 0.00 0.00 0.00 1010.6
20240418064535 -17 5 14.5 29.0 0.00 0.00 0.00 1011.1
20240418063129 -17 5 20.9 33.8 0.00 0.00 0.00 1011.2
20240418061554 -17 5 20.9 33.8 0.00 0.00 0.00 1011.5
20240418060052 -17 5 20.9 30.6 0.00 0.00 0.00 1012.0
20240418054543 -17 5 16.1 22.5 0.00 0.00 0.00 1012.4
20240418053045 -17 5 6.4 17.7 0.00 0.00 0.00 1012.9
20240418051539 -17 5 14.5 22.5 0.00 0.00 0.00 1012.7
20240418050030 -17 5 16.1 19.3 0.00 0.00 0.00 1012.8
20240418044611 -17 5 6.4 9.7 0.00 0.00 0.00 1013.3
20240418043109 -17 5 6.4 9.7 0.00 0.00 0.00 1013.5
20240418041544 -17 5 16.1 20.9 0.00 0.00 0.00 1013.1
20240418040040 -17 5 4.8 6.4 0.00 0.00 0.00 1013.5
20240418034537 -17 5 0.0 3.2 0.00 0.00 0.00 1013.5
20240418033031 -17 5 3.2 9.7 0.00 0.00 0.00 1013.4
20240418031531 -17 5 6.4 12.9 0.00 0.00 0.00 1013.1
20240418030019 -17 5 8.0 12.9 0.00 0.00 0.00 1012.9
20240418024517 -17 5 12.9 19.3 0.00 0.00 0.00 1012.2
20240418023016 -17 5 11.3 17.7 0.00 0.00 0.00 1012.4
20240418021510 -17 5 1.6 6.4 0.00 0.00 0.00 1012.6
20240418020007 -17 5 3.2 9.7 0.00 0.00 0.00 1012.4
20240418014612 -17 5 6.4 14.5 0.00 0.00 0.00 1012.2
20240418013057 -17 5 8.0 12.9 0.00 0.00 0.00 1012.1
20240418011550 -17 5 4.8 9.7 0.00 0.00 0.00 1012.0
20240418010045 -17 5 8.0 14.5 0.00 0.00 0.00 1011.8
20240418004544 -17 5 8.0 14.5 0.00 0.00 0.00 1011.5
20240418003044 -17 5 11.3 17.7 0.00 0.00 0.00 1011.1
20240418001530 -17 5 14.5 19.3 0.00 0.00 0.00 1010.9
20240418000035 -17 5 11.3 19.3 0.00 0.00 0.00 1011.0
20240417234528 -17 5 8.0 16.1 0.00 0.00 0.00 1011.0
20240417233027 -17 5 14.5 19.3 0.00 0.00 0.00 1010.7
20240417231556 -17 5 16.1 20.9 0.00 0.00 0.00 1010.7
20240417230059 -17 5 17.7 22.5 0.00 0.00 0.00 1010.9
20240417224554 -17 5 19.3 27.4 0.00 0.00 0.00 1011.2
20240417223054 -17 5 19.3 24.1 0.00 0.00 0.00 1011.2
20240417221603 -17 5 14.5 25.7 0.00 0.00 0.00 1011.4
20240417220053 -17 5 16.1 24.1 0.00 0.00 0.00 1011.7
20240417214551 -17 5 12.9 19.3 0.00 0.00 0.00 1011.9
20240417213100 -17 5 19.3 27.4 0.00 0.00 0.00 1011.6
20240417211551 -17 5 19.3 24.1 0.00 0.00 0.00 1011.9
20240417210051 -17 5 12.9 25.7 0.00 0.00 0.00 1012.2
20240417204548 -17 5 12.9 17.7 0.00 0.00 0.00 1012.3
20240417203044 -17 5 11.3 20.9 0.00 0.00 0.00 1012.8
20240417201547 -17 5 14.5 22.5 0.00 0.00 0.00 1012.8
20240417200044 -17 5 16.1 22.5 0.00 0.00 0.00 1012.6
20240417194540 -17 5 16.1 22.5 0.00 0.00 0.00 1012.7
20240417193040 -17 5 11.3 24.1 0.00 0.00 0.00 1013.1
20240417191639 -17 5 11.3 19.3 0.00 0.00 0.00 1013.2
20240417190049 -17 5 14.5 20.9 0.00 0.00 0.00 1013.6
20240417184536 -17 5 16.1 20.9 0.00 0.00 0.00 1013.8
20240417183035 -17 5 12.9 16.1 0.00 0.00 0.00 1013.9
20240417181535 -17 5 11.3 16.1 0.00 0.00 0.00 1013.7
20240417180040 -17 5 11.3 16.1 0.00 0.00 0.00 1013.8